{"data":{"norad_id":53612,"intl_designator":"2022-104AA","name":"STARLINK-4658","alt_names":[],"object_type":"PAYLOAD","status":"ACTIVE","operator":null,"country":"US","launch_date":"2022-08-28","launch_site_code":"AFETR","launch_vehicle":null,"mission":null,"orbit_class":"UNKNOWN","rcs_meters":null,"size_class":null,"mass_kg":null,"dimensions":null,"purposes":["comms"],"wikipedia_slug":null,"has_3d_model":false,"image_url":null,"decayed_at":null,"tle_current":{"epoch":"2026-09-20T04:28:10.110432Z","epoch_age_seconds":109520,"freshness":"FRESH","line1":"1 53612U 22104AA  26263.18622813  .00001011  00000+0  39881-4 0  9991","line2":"2 53612  53.1609  69.3743 0001200  92.4714 267.6426 15.35392858225152","mean_motion":15.35392858,"eccentricity":0.00012,"inclination_deg":53.1609,"raan_deg":69.3743,"arg_perigee_deg":92.4714,"mean_anomaly_deg":267.6426,"bstar":3.9881e-5,"rev_number":22515,"period_min":93.787071660327,"perigee_km":458.93330041338,"apogee_km":460.57439421673,"semimajor_km":6837.8908473151,"source":"CELESTRAK","updated_at":"2026-09-21T09:00:32.939873Z"}}}